EXS71MH LOWI-EGBB

Flight info

Callsign EXS71MH
Flight time 1h 42m
Altitude 38000
Route RTT Y703 MOGTI P66 KPT L608 KUNOD DCT LIRSU DCT DENUT L610 HEMEL
Aircraft A21N/M-SDE2E3FGHIRWXY/LB1

Departure

Time 2026-05-04 08:20
Airport Innsbruck Airport (LOWI)

Arrival

Time 2026-05-04 10:02
Airport Birmingham Airport (EGBB)
Time Latitude Longitude Altitude Speed Heading
2026-05-04 07:54 47.25819 11.34989 1896 ft 0 kts 171°
2026-05-04 08:10 47.25866 11.34930 1901 ft 0 kts 81°
2026-05-04 08:14 47.25866 11.34932 1902 ft 0 kts 81°
2026-05-04 08:14 47.25868 11.34949 1896 ft 3 kts 81°
2026-05-04 08:16 47.26133 11.35448 1906 ft 19 kts 81°
2026-05-04 08:16 47.26111 11.35617 1901 ft 13 kts 116°
2026-05-04 08:16 47.26131 11.35718 1896 ft 6 kts 14°
2026-05-04 08:17 47.26157 11.35664 1907 ft 9 kts 267°
2026-05-04 08:17 47.26153 11.35620 1895 ft 0 kts 261°
2026-05-04 08:19 47.25961 11.33862 1911 ft 166 kts 261°
2026-05-04 08:19 47.25768 11.32060 2490 ft 188 kts 261°
2026-05-04 08:20 47.25578 11.30090 3332 ft 197 kts 262°
2026-05-04 08:20 47.25375 11.28028 4005 ft 210 kts 263°
2026-05-04 08:20 47.25510 11.25845 4640 ft 222 kts 288°
2026-05-04 08:20 47.26111 11.23712 5404 ft 227 kts 294°
2026-05-04 08:21 47.26756 11.21572 6276 ft 229 kts 294°
2026-05-04 08:21 47.27398 11.19415 7075 ft 231 kts 293°
2026-05-04 08:21 47.28045 11.17225 7608 ft 234 kts 293°
2026-05-04 08:21 47.28691 11.15019 8182 ft 236 kts 293°
2026-05-04 08:22 47.29349 11.12771 8695 ft 248 kts 293°
2026-05-04 08:22 47.30066 11.10299 8905 ft 278 kts 292°
2026-05-04 08:24 47.29918 10.89738 10670 ft 321 kts 272°
2026-05-04 08:24 47.30237 10.86381 10974 ft 343 kts 285°
2026-05-04 08:24 47.31104 10.83019 11255 ft 364 kts 298°
2026-05-04 08:24 47.32675 10.79969 11521 ft 383 kts 315°
2026-05-04 08:25 47.34663 10.77224 11779 ft 399 kts 318°
2026-05-04 08:25 47.36767 10.74454 12142 ft 409 kts 318°
2026-05-04 08:25 47.38923 10.71694 12763 ft 411 kts 322°
2026-05-04 08:25 47.41261 10.69239 13391 ft 414 kts 325°
2026-05-04 08:26 47.43643 10.66834 13984 ft 417 kts 325°
2026-05-04 08:27 47.60804 10.49254 17380 ft 438 kts 324°
2026-05-04 08:28 47.63308 10.46659 17834 ft 440 kts 325°
2026-05-04 08:28 47.65823 10.44057 18258 ft 442 kts 324°
2026-05-04 08:28 47.68349 10.41430 18663 ft 445 kts 324°
2026-05-04 08:28 47.70886 10.38791 19051 ft 447 kts 324°
2026-05-04 08:29 47.73440 10.36136 19475 ft 449 kts 324°
2026-05-04 08:29 47.75932 10.33313 19885 ft 452 kts 320°
2026-05-04 08:29 47.78372 10.30353 20279 ft 454 kts 320°
2026-05-04 08:31 47.95814 10.09051 23240 ft 473 kts 320°
2026-05-04 08:33 48.13865 9.86782 25824 ft 482 kts 320°
2026-05-04 08:33 48.16451 9.83575 26236 ft 481 kts 320°
2026-05-04 08:35 48.34323 9.61102 28816 ft 477 kts 315°
2026-05-04 08:35 48.36606 9.57473 29164 ft 477 kts 313°
2026-05-04 08:35 48.38859 9.53821 29509 ft 476 kts 313°
2026-05-04 08:35 48.41075 9.50223 29848 ft 475 kts 313°
2026-05-04 08:37 48.54489 9.28407 31878 ft 469 kts 313°
2026-05-04 08:37 48.56699 9.24796 32210 ft 468 kts 312°
2026-05-04 08:37 48.58900 9.21184 32505 ft 467 kts 312°
2026-05-04 08:38 48.61103 9.17563 32766 ft 467 kts 312°
2026-05-04 08:38 48.63310 9.13944 33027 ft 467 kts 312°
2026-05-04 08:38 48.65506 9.10332 33295 ft 466 kts 312°
2026-05-04 08:40 48.80059 8.86284 34782 ft 463 kts 312°
2026-05-04 08:40 48.82231 8.82680 34974 ft 463 kts 312°
2026-05-04 08:40 48.84400 8.79077 35159 ft 463 kts 312°
2026-05-04 08:41 48.87296 8.74242 35387 ft 462 kts 312°
2026-05-04 08:41 48.88723 8.71852 35504 ft 462 kts 312°
2026-05-04 08:41 48.90883 8.68237 35680 ft 461 kts 312°
2026-05-04 08:41 48.93038 8.64630 35845 ft 460 kts 312°
2026-05-04 08:42 48.95190 8.61024 35999 ft 460 kts 312°
2026-05-04 08:42 48.97339 8.57420 36128 ft 459 kts 312°
2026-05-04 08:42 48.99480 8.53821 36262 ft 459 kts 312°
2026-05-04 08:42 49.01623 8.50218 36393 ft 458 kts 312°
2026-05-04 08:43 49.03764 8.46622 36520 ft 458 kts 312°
2026-05-04 08:43 49.05904 8.43020 36631 ft 458 kts 312°
2026-05-04 08:43 49.08041 8.39416 36735 ft 458 kts 312°
2026-05-04 08:43 49.10177 8.35802 36844 ft 458 kts 312°
2026-05-04 08:44 49.12315 8.32185 36940 ft 458 kts 311°
2026-05-04 08:44 49.14443 8.28571 37041 ft 458 kts 311°
2026-05-04 08:46 49.29320 8.03192 37626 ft 458 kts 311°
2026-05-04 08:46 49.31436 7.99564 37854 ft 455 kts 311°
2026-05-04 08:46 49.33537 7.95954 38029 ft 453 kts 311°
2026-05-04 08:47 49.37747 7.88704 38026 ft 457 kts 311°
2026-05-04 08:47 49.41995 7.81364 38005 ft 460 kts 311°
2026-05-04 08:48 49.46240 7.74021 38001 ft 459 kts 311°
2026-05-04 08:48 49.50477 7.66667 38001 ft 459 kts 311°
2026-05-04 08:49 49.54717 7.59287 38002 ft 461 kts 311°
2026-05-04 08:50 49.69503 7.33386 38003 ft 462 kts 311°
2026-05-04 08:51 49.73720 7.25933 38001 ft 461 kts 311°
2026-05-04 08:51 49.77954 7.18450 38001 ft 461 kts 311°
2026-05-04 08:52 49.82176 7.10970 38002 ft 461 kts 311°
2026-05-04 08:52 49.86389 7.03473 38003 ft 462 kts 311°
2026-05-04 08:54 50.03113 6.73512 38001 ft 460 kts 310°
2026-05-04 08:55 50.07331 6.65897 38001 ft 461 kts 310°
2026-05-04 08:55 50.11485 6.58381 38001 ft 460 kts 310°
2026-05-04 09:01 50.48008 5.70167 38001 ft 458 kts 301°
2026-05-04 09:01 50.51299 5.61590 38001 ft 459 kts 301°
2026-05-04 09:02 50.54577 5.52988 38001 ft 458 kts 301°
2026-05-04 09:02 50.57860 5.44373 38002 ft 458 kts 301°
2026-05-04 09:03 50.61144 5.35767 38002 ft 458 kts 301°
2026-05-04 09:03 50.64398 5.27208 38001 ft 458 kts 301°
2026-05-04 09:04 50.67659 5.18571 38001 ft 458 kts 300°
2026-05-04 09:04 50.70908 5.09937 38002 ft 458 kts 300°
2026-05-04 09:05 50.74151 5.01266 38002 ft 458 kts 300°
2026-05-04 09:05 50.77384 4.92610 38001 ft 458 kts 300°
2026-05-04 09:06 50.80622 4.83944 38001 ft 457 kts 300°
2026-05-04 09:08 50.93457 4.49227 38002 ft 457 kts 300°
2026-05-04 09:08 50.96658 4.40507 38002 ft 457 kts 300°
2026-05-04 09:09 50.99845 4.31772 38002 ft 457 kts 300°
2026-05-04 09:09 51.03024 4.23033 38002 ft 457 kts 300°
2026-05-04 09:10 51.06200 4.14276 38002 ft 457 kts 300°
2026-05-04 09:10 51.09376 4.05500 38002 ft 457 kts 300°
2026-05-04 09:11 51.12525 3.96759 38001 ft 457 kts 300°
2026-05-04 09:11 51.15674 3.87991 38002 ft 457 kts 300°
2026-05-04 09:12 51.18825 3.79192 38005 ft 457 kts 299°
2026-05-04 09:14 51.26885 3.41138 38001 ft 457 kts 282°
2026-05-04 09:14 51.28168 3.31196 38001 ft 457 kts 281°
2026-05-04 09:15 51.29438 3.21247 38002 ft 457 kts 281°
2026-05-04 09:15 51.30706 3.11301 38001 ft 457 kts 281°
2026-05-04 09:17 51.36284 2.66539 38002 ft 457 kts 281°
2026-05-04 09:18 51.37516 2.56549 38001 ft 457 kts 281°
2026-05-04 09:18 51.38736 2.46571 38001 ft 457 kts 281°
2026-05-04 09:19 51.39945 2.36588 38002 ft 457 kts 281°
2026-05-04 09:19 51.41149 2.26581 38001 ft 457 kts 281°
2026-05-04 09:20 51.41749 2.21610 37751 ft 451 kts 281°
2026-05-04 09:20 51.42356 2.16672 36951 ft 453 kts 281°
2026-05-04 09:20 51.42963 2.11717 36365 ft 454 kts 281°
2026-05-04 09:20 51.43568 2.06747 36102 ft 455 kts 281°
2026-05-04 09:21 51.44771 1.96772 35997 ft 457 kts 281°
2026-05-04 09:21 51.45945 1.86767 35999 ft 457 kts 280°
2026-05-04 09:22 51.47109 1.76733 36004 ft 457 kts 280°
2026-05-04 09:22 51.48518 1.66843 35694 ft 450 kts 291°
2026-05-04 09:23 51.49783 1.62246 35019 ft 447 kts 295°
2026-05-04 09:23 51.51100 1.57778 34718 ft 437 kts 295°
2026-05-04 09:23 51.52364 1.53422 34483 ft 425 kts 294°
2026-05-04 09:23 51.53574 1.49153 34065 ft 419 kts 294°
2026-05-04 09:25 51.61609 1.20154 30464 ft 394 kts 294°
2026-05-04 09:25 51.62355 1.17436 30122 ft 392 kts 294°
2026-05-04 09:26 51.63436 1.13498 29627 ft 389 kts 294°
2026-05-04 09:26 51.64524 1.09523 29118 ft 386 kts 294°
2026-05-04 09:26 51.65602 1.05580 28616 ft 383 kts 294°
2026-05-04 09:26 51.66676 1.01657 28116 ft 380 kts 294°
2026-05-04 09:27 51.67732 0.97787 27626 ft 377 kts 294°
2026-05-04 09:27 51.68781 0.93936 27138 ft 374 kts 293°
2026-05-04 09:27 51.69817 0.90118 26653 ft 371 kts 293°
2026-05-04 09:27 51.70849 0.86317 26166 ft 368 kts 293°
2026-05-04 09:28 51.71868 0.82557 25690 ft 365 kts 293°
2026-05-04 09:28 51.72880 0.78813 25215 ft 362 kts 293°
2026-05-04 09:28 51.73882 0.75099 24739 ft 359 kts 293°
2026-05-04 09:28 51.74877 0.71410 24268 ft 357 kts 293°
2026-05-04 09:29 51.75860 0.67753 23796 ft 354 kts 293°
2026-05-04 09:29 51.76837 0.64116 23329 ft 352 kts 293°
2026-05-04 09:29 51.77806 0.60507 22867 ft 349 kts 293°
2026-05-04 09:29 51.78765 0.56921 22412 ft 347 kts 293°
2026-05-04 09:30 51.79720 0.53351 21956 ft 344 kts 293°
2026-05-04 09:30 51.80664 0.49817 21504 ft 342 kts 293°
2026-05-04 09:30 51.81602 0.46295 21054 ft 340 kts 293°
2026-05-04 09:30 51.82531 0.42805 20609 ft 337 kts 293°
2026-05-04 09:31 51.83455 0.39333 20185 ft 335 kts 293°
2026-05-04 09:31 51.84364 0.35915 20002 ft 335 kts 293°
2026-05-04 09:31 51.85279 0.32460 19978 ft 335 kts 293°
2026-05-04 09:31 51.86196 0.28997 19987 ft 335 kts 293°
2026-05-04 09:32 51.87101 0.25572 19714 ft 328 kts 293°
2026-05-04 09:32 51.87997 0.22177 19107 ft 327 kts 293°
2026-05-04 09:34 51.94086 -0.01056 16998 ft 320 kts 292°
2026-05-04 09:34 51.94948 -0.04368 17003 ft 320 kts 292°
2026-05-04 09:34 51.95812 -0.07692 17006 ft 320 kts 292°
2026-05-04 09:34 51.96674 -0.11009 17009 ft 320 kts 292°
2026-05-04 09:35 51.97537 -0.14336 17011 ft 320 kts 292°
2026-05-04 09:35 51.98395 -0.17658 17010 ft 319 kts 292°
2026-05-04 09:35 51.99248 -0.20955 17007 ft 319 kts 292°
2026-05-04 09:35 52.00101 -0.24255 17005 ft 319 kts 292°
2026-05-04 09:37 52.06105 -0.47617 12525 ft 329 kts 292°
2026-05-04 09:37 52.06984 -0.51065 11658 ft 330 kts 292°
2026-05-04 09:38 52.07864 -0.54516 10829 ft 330 kts 292°
2026-05-04 09:38 52.08719 -0.57874 10332 ft 321 kts 292°
2026-05-04 09:38 52.09549 -0.61177 9940 ft 308 kts 289°
2026-05-04 09:38 52.10088 -0.64458 9608 ft 294 kts 282°
2026-05-04 09:39 52.10487 -0.67667 9227 ft 285 kts 281°
2026-05-04 09:39 52.10859 -0.70829 9039 ft 283 kts 281°
2026-05-04 09:39 52.11226 -0.73970 8985 ft 280 kts 281°
2026-05-04 09:39 52.11585 -0.77052 8640 ft 277 kts 281°
2026-05-04 09:40 52.11945 -0.80141 8227 ft 278 kts 281°
2026-05-04 09:40 52.12304 -0.83222 7831 ft 277 kts 281°
2026-05-04 09:40 52.12663 -0.86311 7460 ft 276 kts 281°
2026-05-04 09:40 52.13019 -0.89375 7109 ft 275 kts 281°
2026-05-04 09:41 52.13374 -0.92435 6981 ft 275 kts 281°
2026-05-04 09:42 52.15827 -1.13658 5776 ft 270 kts 280°
2026-05-04 09:43 52.16171 -1.16649 5404 ft 268 kts 280°
2026-05-04 09:43 52.16518 -1.19622 5051 ft 267 kts 283°
2026-05-04 09:43 52.17233 -1.22399 4927 ft 267 kts 298°
2026-05-04 09:43 52.18157 -1.25016 4919 ft 267 kts 300°
2026-05-04 09:44 52.19105 -1.27621 4930 ft 267 kts 301°
2026-05-04 09:44 52.20052 -1.30221 4935 ft 267 kts 301°
2026-05-04 09:44 52.21002 -1.32826 4937 ft 267 kts 300°
2026-05-04 09:46 52.27620 -1.51034 4940 ft 267 kts 300°
2026-05-04 09:46 52.28562 -1.53634 4866 ft 266 kts 300°
2026-05-04 09:46 52.29513 -1.56203 4598 ft 262 kts 304°
2026-05-04 09:47 52.30677 -1.58431 4430 ft 253 kts 317°
2026-05-04 09:47 52.32050 -1.60188 4131 ft 251 kts 328°
2026-05-04 09:49 52.42854 -1.72757 3051 ft 329 kts 322°
2026-05-04 09:49 52.44345 -1.75457 2931 ft 315 kts 300°
2026-05-04 09:49 52.45080 -1.78805 2897 ft 313 kts 277°
2026-05-04 09:51 52.42412 -1.97046 2927 ft 260 kts 214°
2026-05-04 09:51 52.40747 -1.98131 2934 ft 260 kts 186°
2026-05-04 09:51 52.38961 -1.97781 2944 ft 261 kts 158°
2026-05-04 09:51 52.37338 -1.96450 2947 ft 262 kts 150°
2026-05-04 09:52 52.35778 -1.94979 2946 ft 262 kts 149°
2026-05-04 09:52 52.34204 -1.93477 2942 ft 260 kts 149°
2026-05-04 09:52 52.32667 -1.92014 2942 ft 247 kts 150°
2026-05-04 09:52 52.31186 -1.90606 2933 ft 246 kts 150°
2026-05-04 09:53 52.29703 -1.89197 2933 ft 246 kts 150°
2026-05-04 09:53 52.28221 -1.87789 2931 ft 246 kts 150°
2026-05-04 09:53 52.26819 -1.86219 2930 ft 242 kts 133°
2026-05-04 09:53 52.25947 -1.83894 2944 ft 242 kts 112°
2026-05-04 09:54 52.25346 -1.81363 2942 ft 242 kts 110°
2026-05-04 09:54 52.24766 -1.78789 2939 ft 242 kts 110°
2026-05-04 09:54 52.24189 -1.76216 2939 ft 242 kts 110°
2026-05-04 09:54 52.23621 -1.73692 2941 ft 232 kts 110°
2026-05-04 09:55 52.23066 -1.71225 2933 ft 231 kts 110°
2026-05-04 09:55 52.22705 -1.68687 2926 ft 231 kts 88°
2026-05-04 09:55 52.23019 -1.66197 2944 ft 231 kts 71°
2026-05-04 09:55 52.23521 -1.63791 2933 ft 216 kts 70°
2026-05-04 09:56 52.24011 -1.61523 2924 ft 211 kts 70°
2026-05-04 09:56 52.24536 -1.59297 2926 ft 210 kts 58°
2026-05-04 09:56 52.25541 -1.57708 2921 ft 198 kts 22°
2026-05-04 09:56 52.26874 -1.57264 2932 ft 197 kts
2026-05-04 09:57 52.28246 -1.57195 2937 ft 197 kts 360°
2026-05-04 09:57 52.29587 -1.57560 2941 ft 196 kts 337°
2026-05-04 09:57 52.30801 -1.58559 2940 ft 196 kts 326°
2026-05-04 09:57 52.31911 -1.59861 2942 ft 196 kts 325°
2026-05-04 09:58 52.33042 -1.61118 2936 ft 196 kts 325°
2026-05-04 09:58 52.34151 -1.62345 2797 ft 189 kts 325°
2026-05-04 09:58 52.35226 -1.63533 2625 ft 183 kts 325°
2026-05-04 10:00 52.41400 -1.70376 1117 ft 137 kts 325°
2026-05-04 10:00 52.42187 -1.71250 943 ft 137 kts 325°
2026-05-04 10:02 52.46071 -1.75563 315 ft 29 kts 326°
2026-05-04 10:04 52.45688 -1.74808 319 ft 24 kts 146°
2026-05-04 10:04 52.45588 -1.74700 325 ft 9 kts 146°
2026-05-04 10:04 52.45524 -1.74629 325 ft 13 kts 145°
2026-05-04 10:04 52.45457 -1.74522 327 ft 15 kts 119°
2026-05-04 10:05 52.45410 -1.74362 329 ft 16 kts 116°
2026-05-04 10:05 52.45356 -1.74185 329 ft 18 kts 116°
2026-05-04 10:05 52.45301 -1.74012 328 ft 13 kts 128°
2026-05-04 10:05 52.45228 -1.73920 326 ft 14 kts 146°
2026-05-04 10:06 52.45149 -1.73833 326 ft 13 kts 146°
2026-05-04 10:06 52.45105 -1.73748 326 ft 5 kts 96°
2026-05-04 10:06 52.45114 -1.73687 328 ft 6 kts 60°
2026-05-04 10:08 52.45106 -1.73564 329 ft 2 kts 140°
2026-05-04 10:08 52.45097 -1.73552 329 ft 0 kts 140°
2026-05-04 10:08 52.45096 -1.73551 325 ft 0 kts 140°